SVA196 LGAV-OERK

Flight info

Callsign SVA196
Flight time N/A
Altitude 35000
Route KEA1E KEA UL607 PAXIS Y707 OBRAN L321 REXUM M872 LUBOS/N0437F370 M872 WEJ L604 GAS G662 SIVIS SIVIS1A
Aircraft A320/M-SDE3FGHIRWY/LB1

Departure

Time 2026-04-30 19:40
Airport Athens Eleftherios Venizelos International Airport (LGAV)

Arrival

Time N/A
Airport King Khalid International Airport (OERK)
Time Latitude Longitude Altitude Speed Heading
2026-04-30 19:26 37.93079 23.94232 283 ft 0 kts 39°
2026-04-30 19:32 37.93073 23.94226 282 ft 3 kts 39°
2026-04-30 19:33 37.93060 23.94212 263 ft 3 kts 39°
2026-04-30 19:33 37.93046 23.94198 290 ft 3 kts 39°
2026-04-30 19:33 37.93033 23.94184 289 ft 3 kts 39°
2026-04-30 19:33 37.93019 23.94170 286 ft 3 kts 59°
2026-04-30 19:34 37.93013 23.94148 282 ft 3 kts 96°
2026-04-30 19:34 37.93018 23.94127 283 ft 1 kts 128°
2026-04-30 19:36 37.93017 23.94128 283 ft 2 kts 128°
2026-04-30 19:36 37.92981 23.94188 281 ft 11 kts 127°
2026-04-30 19:36 37.92907 23.94310 282 ft 7 kts 126°
2026-04-30 19:37 37.92874 23.94358 282 ft 9 kts 149°
2026-04-30 19:37 37.92809 23.94336 284 ft 14 kts 217°
2026-04-30 19:37 37.92737 23.94267 280 ft 13 kts 217°
2026-04-30 19:37 37.92669 23.94203 279 ft 12 kts 217°
2026-04-30 19:38 37.92608 23.94203 279 ft 9 kts 133°
2026-04-30 19:38 37.92574 23.94260 279 ft 7 kts 126°
2026-04-30 19:38 37.92546 23.94309 279 ft 10 kts 128°
2026-04-30 19:38 37.92495 23.94393 279 ft 12 kts 126°
2026-04-30 19:39 37.92504 23.94472 280 ft 9 kts 39°
2026-04-30 19:39 37.92560 23.94525 279 ft 14 kts 37°
2026-04-30 19:39 37.92824 23.94775 280 ft 81 kts 37°
2026-04-30 19:39 37.93436 23.95354 295 ft 136 kts 37°
2026-04-30 19:40 37.94317 23.96188 328 ft 176 kts 37°
2026-04-30 19:40 37.95258 23.97087 1015 ft 170 kts 37°
2026-04-30 19:40 37.96201 23.97992 1630 ft 170 kts 37°
2026-04-30 19:40 37.97161 23.98916 2115 ft 178 kts 37°
2026-04-30 19:41 37.98214 23.99928 2320 ft 202 kts 37°
2026-04-30 19:41 37.99398 24.01064 2587 ft 225 kts 37°
2026-04-30 19:41 38.00711 24.02324 2972 ft 245 kts 36°
2026-04-30 19:41 38.02096 24.03655 3611 ft 253 kts 36°
2026-04-30 19:42 38.03507 24.05015 4367 ft 257 kts 36°
2026-04-30 19:42 38.04940 24.06399 5093 ft 262 kts 35°
2026-04-30 19:42 38.06400 24.07807 5864 ft 265 kts 35°
2026-04-30 19:42 38.07818 24.09321 6584 ft 271 kts 47°
2026-04-30 19:43 38.08769 24.11372 7255 ft 278 kts 71°
2026-04-30 19:43 38.09032 24.13847 7736 ft 292 kts 97°
2026-04-30 19:43 38.08476 24.16344 8336 ft 298 kts 117°
2026-04-30 19:44 38.05792 24.20311 9747 ft 300 kts 152°
2026-04-30 19:44 38.03896 24.21381 10361 ft 302 kts 168°
2026-04-30 19:44 38.01760 24.21854 10536 ft 322 kts 176°
2026-04-30 19:44 37.99462 24.22242 10664 ft 345 kts 176°
2026-04-30 19:45 37.97003 24.22649 10802 ft 366 kts 175°
2026-04-30 19:45 37.94427 24.23082 11191 ft 377 kts 175°
2026-04-30 19:45 37.91819 24.23533 11778 ft 381 kts 175°
2026-04-30 19:45 37.89176 24.23995 12385 ft 385 kts 175°
2026-04-30 19:46 37.86518 24.24465 13005 ft 388 kts 175°
2026-04-30 19:46 37.83865 24.24937 13615 ft 391 kts 175°
2026-04-30 19:46 37.81153 24.25416 14167 ft 395 kts 175°
2026-04-30 19:46 37.78428 24.25898 14705 ft 398 kts 175°
2026-04-30 19:47 37.75675 24.26385 15244 ft 401 kts 175°
2026-04-30 19:47 37.73807 24.26713 15608 ft 402 kts 175°
2026-04-30 19:47 37.70119 24.27354 16325 ft 406 kts 175°
2026-04-30 19:47 37.67305 24.27839 16854 ft 409 kts 175°
2026-04-30 19:48 37.64481 24.28327 17391 ft 412 kts 175°
2026-04-30 19:48 37.61625 24.28826 17900 ft 415 kts 175°
2026-04-30 19:48 37.58749 24.29345 18394 ft 419 kts 173°
2026-04-30 19:48 37.55911 24.30285 18822 ft 427 kts 163°
2026-04-30 19:49 37.53192 24.31856 19251 ft 433 kts 153°
2026-04-30 19:49 37.48033 24.35913 20045 ft 440 kts 150°
2026-04-30 19:49 37.45459 24.37938 20438 ft 443 kts 151°
2026-04-30 19:50 37.42806 24.40018 20830 ft 446 kts 151°
2026-04-30 19:50 37.40200 24.42063 21207 ft 448 kts 150°
2026-04-30 19:50 37.37543 24.44147 21572 ft 451 kts 150°
2026-04-30 19:50 37.34879 24.46235 21926 ft 453 kts 150°
2026-04-30 19:51 37.32191 24.48340 22280 ft 456 kts 150°
2026-04-30 19:51 37.29488 24.50455 22613 ft 458 kts 150°
2026-04-30 19:51 37.26777 24.52570 22942 ft 461 kts 150°
2026-04-30 19:51 37.24042 24.54699 23257 ft 463 kts 150°
2026-04-30 19:52 37.21302 24.56832 23586 ft 466 kts 150°
2026-04-30 19:52 37.18541 24.58983 23858 ft 468 kts 150°
2026-04-30 19:52 37.15770 24.61142 24136 ft 469 kts 150°
2026-04-30 19:52 37.12997 24.63301 24411 ft 471 kts 150°
2026-04-30 19:53 37.10206 24.65474 24692 ft 472 kts 150°
2026-04-30 19:53 37.07405 24.67649 24941 ft 474 kts 150°
2026-04-30 19:53 37.04642 24.69795 25192 ft 475 kts 150°
2026-04-30 19:53 37.01824 24.71983 25447 ft 477 kts 150°
2026-04-30 19:54 36.99007 24.74167 25683 ft 478 kts 151°
2026-04-30 19:54 36.96171 24.76362 25922 ft 479 kts 150°
2026-04-30 19:54 36.93329 24.78561 26159 ft 480 kts 150°
2026-04-30 19:54 36.90488 24.80754 26383 ft 482 kts 150°
2026-04-30 19:55 36.87631 24.82958 26598 ft 483 kts 150°
2026-04-30 19:55 36.84769 24.85170 26810 ft 484 kts 150°
2026-04-30 19:55 36.81910 24.87380 27015 ft 485 kts 150°
2026-04-30 19:55 36.79043 24.89593 27298 ft 483 kts 150°
2026-04-30 19:56 36.76192 24.91795 27582 ft 483 kts 150°
2026-04-30 19:56 36.73375 24.93970 27864 ft 482 kts 150°
2026-04-30 19:56 36.70525 24.96168 28153 ft 481 kts 150°
2026-04-30 19:56 36.67687 24.98353 28436 ft 480 kts 150°
2026-04-30 19:57 36.64843 25.00536 28725 ft 479 kts 150°
2026-04-30 19:57 36.62001 25.02713 29011 ft 479 kts 150°
2026-04-30 19:57 36.59174 25.04879 29305 ft 478 kts 150°
2026-04-30 19:57 36.56343 25.07048 29597 ft 477 kts 150°
2026-04-30 19:58 36.53525 25.09202 29890 ft 476 kts 150°
2026-04-30 19:58 36.50700 25.11356 30167 ft 475 kts 151°
2026-04-30 19:58 36.47879 25.13507 30405 ft 475 kts 151°
2026-04-30 19:58 36.45068 25.15648 30635 ft 475 kts 151°
2026-04-30 19:59 36.42285 25.17765 30852 ft 475 kts 151°
2026-04-30 19:59 36.39466 25.19911 31071 ft 475 kts 151°
2026-04-30 19:59 36.33834 25.24197 31500 ft 475 kts 152°
2026-04-30 20:00 36.31019 25.26334 31709 ft 476 kts 152°
2026-04-30 20:00 36.28192 25.28478 31916 ft 476 kts 152°
2026-04-30 20:00 36.25361 25.30620 32126 ft 476 kts 152°
2026-04-30 20:00 36.22538 25.32757 32331 ft 477 kts 152°
2026-04-30 20:01 36.16900 25.37023 32718 ft 478 kts 152°
2026-04-30 20:01 36.14027 25.39193 32917 ft 479 kts 153°
2026-04-30 20:01 36.11216 25.41314 33106 ft 479 kts 153°
2026-04-30 20:02 36.05517 25.45613 33497 ft 481 kts 153°
2026-04-30 20:02 36.02658 25.47768 33696 ft 481 kts 153°
2026-04-30 20:03 35.96938 25.52074 34066 ft 482 kts 154°
2026-04-30 20:03 35.94067 25.54229 34230 ft 483 kts 154°
2026-04-30 20:03 35.91202 25.56379 34399 ft 483 kts 154°
2026-04-30 20:03 35.88325 25.58538 34567 ft 484 kts 154°
2026-04-30 20:04 35.86422 25.59967 34682 ft 484 kts 154°
2026-04-30 20:04 35.83553 25.62119 34859 ft 484 kts 154°
2026-04-30 20:04 35.80671 25.64275 34972 ft 485 kts 154°
2026-04-30 20:05 35.74875 25.68594 34994 ft 488 kts 154°
2026-04-30 20:05 35.66152 25.75102 34995 ft 489 kts 154°
2026-04-30 20:06 35.60336 25.79443 34995 ft 489 kts 154°
2026-04-30 20:06 35.54541 25.83753 34992 ft 490 kts 155°
2026-04-30 20:07 35.48705 25.88078 34988 ft 490 kts 155°
2026-04-30 20:08 35.39957 25.94545 34984 ft 490 kts 155°
2026-04-30 20:08 35.34110 25.98861 34981 ft 491 kts 155°
2026-04-30 20:09 35.28269 26.03181 34981 ft 491 kts 155°
2026-04-30 20:09 35.19488 26.09643 34981 ft 491 kts 155°
2026-04-30 20:10 35.10741 26.16050 34982 ft 491 kts 155°
2026-04-30 20:11 35.02412 26.23496 34987 ft 500 kts 144°
2026-04-30 20:11 34.97121 26.29024 34982 ft 500 kts 144°
2026-04-30 20:12 34.89184 26.37287 34986 ft 501 kts 144°
2026-04-30 20:13 34.83865 26.42795 34990 ft 502 kts 145°
2026-04-30 20:13 34.78546 26.48290 34996 ft 502 kts 145°
2026-04-30 20:14 34.73259 26.53751 35008 ft 502 kts 145°
2026-04-30 20:14 34.67930 26.59246 35015 ft 503 kts 145°
2026-04-30 20:15 34.62586 26.64749 35011 ft 503 kts 145°
2026-04-30 20:15 34.57246 26.70241 35011 ft 503 kts 145°
2026-04-30 20:16 34.51896 26.75722 35013 ft 504 kts 145°
2026-04-30 20:16 34.46539 26.81200 35007 ft 504 kts 145°
2026-04-30 20:17 34.41209 26.86653 35009 ft 504 kts 145°
2026-04-30 20:17 34.35852 26.92130 35008 ft 504 kts 145°
2026-04-30 20:18 34.30472 26.97599 35009 ft 505 kts 145°
2026-04-30 20:18 34.25102 27.03048 35006 ft 505 kts 145°
2026-04-30 20:19 34.19719 27.08520 35007 ft 505 kts 145°
2026-04-30 20:19 34.14342 27.13984 35008 ft 505 kts 145°
2026-04-30 20:20 34.08986 27.19410 35010 ft 506 kts 145°
2026-04-30 20:20 34.03592 27.24857 35010 ft 506 kts 145°
2026-04-30 20:21 33.98195 27.30295 35009 ft 506 kts 146°
2026-04-30 20:21 33.92380 27.34805 35004 ft 491 kts 162°
2026-04-30 20:22 33.86132 27.38113 35004 ft 490 kts 163°
2026-04-30 20:22 33.79896 27.41426 34997 ft 490 kts 163°
2026-04-30 20:23 33.73659 27.44743 34996 ft 490 kts 163°
2026-04-30 20:23 33.67457 27.48009 34993 ft 490 kts 163°
2026-04-30 20:24 33.61203 27.51301 34999 ft 490 kts 163°
2026-04-30 20:24 33.54964 27.54592 34997 ft 490 kts 163°
2026-04-30 20:25 33.45587 27.59529 35008 ft 490 kts 163°
2026-04-30 20:26 33.36253 27.64425 35013 ft 490 kts 163°
2026-04-30 20:26 33.26880 27.69325 35013 ft 490 kts 163°
2026-04-30 20:27 33.14405 27.75843 35021 ft 489 kts 163°
2026-04-30 20:28 33.01968 27.82297 35018 ft 489 kts 163°
2026-04-30 20:30 32.86392 27.90383 35013 ft 489 kts 163°
2026-04-30 20:31 32.67659 28.00051 35010 ft 490 kts 163°
2026-04-30 20:32 32.52069 28.08061 35011 ft 490 kts 163°
2026-04-30 20:33 32.42682 28.12877 35017 ft 490 kts 163°
2026-04-30 20:34 32.33300 28.17673 35022 ft 490 kts 163°
2026-04-30 20:35 32.23864 28.22495 35024 ft 490 kts 163°
2026-04-30 20:35 32.14460 28.27271 35029 ft 491 kts 163°
2026-04-30 20:36 32.08180 28.30454 35030 ft 491 kts 163°
2026-04-30 20:37 31.98778 28.35227 35046 ft 491 kts 163°
2026-04-30 20:37 31.92534 28.38389 35037 ft 491 kts 163°
2026-04-30 20:38 31.86086 28.41642 35031 ft 491 kts 163°
2026-04-30 20:38 31.79976 28.44727 35024 ft 491 kts 163°
2026-04-30 20:39 31.70549 28.49455 35031 ft 491 kts 163°
2026-04-30 20:40 31.61121 28.54164 35026 ft 491 kts 163°
2026-04-30 20:40 31.54842 28.57302 35026 ft 491 kts 163°
2026-04-30 20:41 31.45424 28.61991 35029 ft 490 kts 163°
2026-04-30 20:41 31.39151 28.65101 35020 ft 490 kts 163°
2026-04-30 20:42 31.32877 28.68208 35020 ft 490 kts 163°
2026-04-30 20:43 31.23461 28.72874 35025 ft 490 kts 163°
2026-04-30 20:43 31.17185 28.75985 35028 ft 490 kts 163°
2026-04-30 20:44 31.07757 28.80636 35034 ft 490 kts 163°
2026-04-30 20:45 30.95230 28.86799 35035 ft 490 kts 163°
2026-04-30 20:45 30.88955 28.89878 35043 ft 489 kts 163°
2026-04-30 20:46 30.76414 28.96013 35036 ft 489 kts 163°
2026-04-30 20:47 30.67013 29.00607 35031 ft 488 kts 163°
2026-04-30 20:48 30.57623 29.05197 35023 ft 488 kts 164°
2026-04-30 20:48 30.51430 29.08477 35018 ft 495 kts 155°
2026-04-30 20:49 30.46016 29.13620 35012 ft 507 kts 138°
2026-04-30 20:50 30.38690 29.22483 35007 ft 508 kts 139°
2026-04-30 20:50 30.33715 29.28439 35009 ft 508 kts 139°
2026-04-30 20:51 30.28789 29.34320 35007 ft 508 kts 139°
2026-04-30 20:51 30.21413 29.43127 35005 ft 508 kts 139°
2026-04-30 20:52 30.16491 29.48993 35001 ft 508 kts 139°
2026-04-30 20:53 30.09128 29.57747 35001 ft 509 kts 139°
2026-04-30 20:53 30.04197 29.63598 35003 ft 508 kts 140°
2026-04-30 20:54 29.96792 29.72367 35000 ft 508 kts 140°
2026-04-30 20:55 29.89386 29.81127 35001 ft 508 kts 140°
2026-04-30 20:55 29.84444 29.86953 35002 ft 509 kts 140°
2026-04-30 20:56 29.77025 29.95696 35000 ft 509 kts 140°
2026-04-30 20:57 29.70327 30.03571 34999 ft 509 kts 140°
2026-04-30 20:57 29.65373 30.09387 35003 ft 509 kts 140°
2026-04-30 20:58 29.57925 30.18095 34998 ft 509 kts 140°
2026-04-30 20:58 29.52962 30.23898 35000 ft 509 kts 140°
2026-04-30 20:59 29.45541 30.32555 35001 ft 510 kts 140°
2026-04-30 21:00 29.35602 30.44177 34997 ft 511 kts 139°
2026-04-30 21:01 29.28245 30.53022 35000 ft 511 kts 139°
2026-04-30 21:02 29.20892 30.61796 35003 ft 511 kts 140°
2026-04-30 21:02 29.15927 30.67694 35002 ft 511 kts 140°
2026-04-30 21:03 29.10986 30.73557 34992 ft 511 kts 140°
2026-04-30 21:03 29.06042 30.79405 35000 ft 512 kts 140°
2026-04-30 21:04 29.01113 30.85228 35003 ft 513 kts 140°
2026-04-30 21:04 28.93666 30.94027 34998 ft 514 kts 140°
2026-04-30 21:05 28.88698 30.99896 35000 ft 515 kts 140°
2026-04-30 21:05 28.83719 31.05760 35003 ft 515 kts 140°
2026-04-30 21:06 28.78730 31.11615 35009 ft 515 kts 140°
2026-04-30 21:06 28.73732 31.17480 35010 ft 515 kts 140°
2026-04-30 21:07 28.68753 31.23349 35012 ft 516 kts 140°
2026-04-30 21:07 28.63892 31.29386 35014 ft 517 kts 137°
2026-04-30 21:08 28.59122 31.35523 35017 ft 518 kts 137°
2026-04-30 21:08 28.54332 31.41630 35022 ft 517 kts 138°
2026-04-30 21:09 28.49510 31.47691 35024 ft 517 kts 138°
2026-04-30 21:09 28.44693 31.53701 35029 ft 517 kts 138°
2026-04-30 21:10 28.39857 31.59739 35033 ft 517 kts 138°
2026-04-30 21:10 28.35019 31.65760 35298 ft 515 kts 138°
2026-04-30 21:11 28.32597 31.68784 35505 ft 514 kts 138°
2026-04-30 21:11 28.30199 31.71785 35695 ft 513 kts 138°
2026-04-30 21:11 28.27824 31.74748 35865 ft 513 kts 138°
2026-04-30 21:11 28.25434 31.77729 36040 ft 512 kts 138°
2026-04-30 21:12 28.23031 31.80721 36202 ft 511 kts 138°
2026-04-30 21:12 28.20642 31.83694 36376 ft 511 kts 137°
2026-04-30 21:12 28.18248 31.86673 36536 ft 510 kts 137°
2026-04-30 21:12 28.15860 31.89633 36689 ft 510 kts 137°
2026-04-30 21:13 28.13465 31.92599 36844 ft 509 kts 137°
2026-04-30 21:13 28.11083 31.95551 37006 ft 508 kts 137°
2026-04-30 21:13 28.06313 32.01475 37065 ft 508 kts 137°
2026-04-30 21:14 28.02005 32.07909 37064 ft 515 kts 122°
2026-04-30 21:14 27.98598 32.15050 37063 ft 516 kts 121°
2026-04-30 21:15 27.95188 32.22136 37060 ft 515 kts 122°
2026-04-30 21:15 27.91746 32.29240 37057 ft 515 kts 122°
2026-04-30 21:16 27.88307 32.36347 37056 ft 516 kts 122°
2026-04-30 21:16 27.84855 32.43446 37054 ft 516 kts 122°
2026-04-30 21:17 27.81427 32.50511 37053 ft 516 kts 122°
2026-04-30 21:17 27.77967 32.57658 37054 ft 515 kts 122°
2026-04-30 21:18 27.74542 32.64692 37050 ft 514 kts 122°
2026-04-30 21:18 27.71086 32.71764 37042 ft 514 kts 122°
2026-04-30 21:19 27.67644 32.78822 37035 ft 513 kts 122°
2026-04-30 21:19 27.64203 32.85866 37032 ft 513 kts 122°
2026-04-30 21:20 27.60752 32.92906 37022 ft 512 kts 122°
2026-04-30 21:20 27.57306 32.99922 37019 ft 512 kts 122°
2026-04-30 21:21 27.53869 33.06933 37004 ft 511 kts 123°
2026-04-30 21:22 27.48716 33.17383 36996 ft 511 kts 123°
2026-04-30 21:23 27.41785 33.31416 36985 ft 511 kts 123°
2026-04-30 21:23 27.36586 33.41885 36978 ft 511 kts 123°
2026-04-30 21:24 27.33097 33.48915 36971 ft 511 kts 123°
2026-04-30 21:24 27.29630 33.55890 36960 ft 511 kts 124°
2026-04-30 21:25 27.24415 33.66345 36953 ft 511 kts 124°
2026-04-30 21:26 27.19176 33.76826 36958 ft 511 kts 124°
2026-04-30 21:27 27.14884 33.87799 36958 ft 516 kts 115°
2026-04-30 21:27 27.12227 33.95282 36946 ft 516 kts 116°
2026-04-30 21:28 27.08226 34.06489 36941 ft 516 kts 116°
2026-04-30 21:29 27.04221 34.17688 36922 ft 516 kts 116°
2026-04-30 21:30 26.97530 34.36347 36916 ft 518 kts 116°
2026-04-30 21:31 26.90756 34.55098 36901 ft 520 kts 116°
2026-04-30 21:32 26.86685 34.66366 36901 ft 520 kts 117°
2026-04-30 21:32 26.83953 34.73872 36902 ft 521 kts 117°
2026-04-30 21:33 26.79870 34.85094 36899 ft 521 kts 117°
2026-04-30 21:34 26.77136 34.92609 36903 ft 522 kts 117°
2026-04-30 21:34 26.73018 35.03884 36903 ft 522 kts 117°
2026-04-30 21:35 26.70265 35.11389 36902 ft 522 kts 117°
2026-04-30 21:35 26.67514 35.18899 36903 ft 522 kts 117°
2026-04-30 21:36 26.64768 35.26375 36911 ft 523 kts 117°
2026-04-30 21:37 26.59222 35.41419 36914 ft 524 kts 117°
2026-04-30 21:37 26.56440 35.48944 36914 ft 524 kts 118°
2026-04-30 21:38 26.53607 35.56439 36911 ft 524 kts 118°
2026-04-30 21:38 26.50726 35.63923 36910 ft 524 kts 119°
2026-04-30 21:39 26.47848 35.71398 36908 ft 525 kts 118°
2026-04-30 21:39 26.44979 35.78887 36912 ft 525 kts 118°
2026-04-30 21:40 26.42111 35.86385 36908 ft 526 kts 119°
2026-04-30 21:40 26.39244 35.93844 36912 ft 526 kts 119°
2026-04-30 21:41 26.36350 36.01339 36914 ft 527 kts 119°
2026-04-30 21:41 26.33451 36.08841 36918 ft 527 kts 119°
2026-04-30 21:42 26.30548 36.16346 36924 ft 527 kts 119°
2026-04-30 21:42 26.27636 36.23861 36926 ft 528 kts 119°
2026-04-30 21:43 26.25223 36.30089 36923 ft 528 kts 119°
2026-04-30 21:43 26.21812 36.38862 36932 ft 528 kts 120°
2026-04-30 21:44 26.19562 36.45187 36928 ft 534 kts 110°
2026-04-30 21:44 26.18638 36.50648 36931 ft 541 kts 97°
2026-04-30 21:44 26.18578 36.54793 36929 ft 544 kts 87°
2026-04-30 21:45 26.19390 36.63166 36923 ft 545 kts 84°
2026-04-30 21:45 26.20228 36.71546 36917 ft 545 kts 84°
2026-04-30 21:46 26.21053 36.79950 36915 ft 546 kts 84°
2026-04-30 21:46 26.21744 36.86936 36918 ft 546 kts 84°
2026-04-30 21:47 26.22576 36.95337 36924 ft 546 kts 85°
2026-04-30 21:47 26.23535 37.05104 36935 ft 546 kts 84°
2026-04-30 21:48 26.24224 37.12160 36945 ft 547 kts 84°
2026-04-30 21:48 26.25036 37.20525 36959 ft 547 kts 84°
2026-04-30 21:49 26.25845 37.28949 36958 ft 546 kts 85°
2026-04-30 21:49 26.26640 37.37376 36977 ft 548 kts 85°
2026-04-30 21:50 26.27431 37.45811 36976 ft 547 kts 85°
2026-04-30 21:50 26.28227 37.54250 36976 ft 547 kts 85°
2026-04-30 21:51 26.29012 37.62622 36978 ft 547 kts 85°
2026-04-30 21:51 26.29803 37.71074 36982 ft 548 kts 85°
2026-04-30 21:52 26.30590 37.79512 36978 ft 548 kts 85°
2026-04-30 21:52 26.31372 37.87966 36980 ft 548 kts 85°
2026-04-30 21:53 26.32146 37.96414 36977 ft 548 kts 85°
2026-04-30 21:53 26.32907 38.04867 36982 ft 548 kts 85°
2026-04-30 21:54 26.33664 38.13264 36986 ft 548 kts 85°
2026-04-30 21:54 26.34433 38.21726 36988 ft 548 kts 85°
2026-04-30 21:55 26.35185 38.30180 36986 ft 548 kts 85°
2026-04-30 21:55 26.35929 38.38638 36983 ft 548 kts 85°
2026-04-30 21:56 26.36670 38.47099 36993 ft 549 kts 85°
2026-04-30 21:56 26.37404 38.55519 36996 ft 549 kts 85°
2026-04-30 21:57 26.38133 38.63979 36999 ft 549 kts 85°
2026-04-30 21:57 26.38862 38.72461 37004 ft 549 kts 85°
2026-04-30 21:58 26.39584 38.80932 37010 ft 549 kts 86°
2026-04-30 21:58 26.40305 38.89408 37009 ft 549 kts 86°
2026-04-30 21:59 26.41024 38.97891 37007 ft 550 kts 86°
2026-04-30 22:00 26.42076 39.10581 36999 ft 550 kts 86°
2026-04-30 22:00 26.43115 39.23340 37002 ft 551 kts 86°
2026-04-30 22:01 26.43763 39.31848 37000 ft 550 kts 88°
2026-04-30 22:01 26.44191 39.40385 36999 ft 550 kts 89°
2026-04-30 22:02 26.44529 39.48911 36999 ft 550 kts 89°
2026-04-30 22:02 26.44916 39.57439 37000 ft 551 kts 89°
2026-04-30 22:03 26.45345 39.65913 37001 ft 551 kts 88°
2026-04-30 22:03 26.45778 39.74462 37005 ft 551 kts 88°
2026-04-30 22:04 26.46193 39.82998 37009 ft 551 kts 89°
2026-04-30 22:05 26.46785 39.95813 37004 ft 551 kts 89°
2026-04-30 22:05 26.47181 40.04354 37002 ft 551 kts 89°
2026-04-30 22:06 26.47571 40.12896 37002 ft 551 kts 89°
2026-04-30 22:06 26.48146 40.25662 37000 ft 551 kts 89°
2026-04-30 22:07 26.48519 40.34206 37002 ft 551 kts 89°
2026-04-30 22:07 26.48884 40.42764 37006 ft 551 kts 89°
2026-04-30 22:08 26.49254 40.51302 37003 ft 551 kts 89°
2026-04-30 22:08 26.49612 40.59839 37009 ft 551 kts 89°
2026-04-30 22:09 26.49971 40.68373 37010 ft 550 kts 89°
2026-04-30 22:09 26.50324 40.76863 37010 ft 550 kts 89°
2026-04-30 22:10 26.50663 40.85386 37012 ft 550 kts 89°
2026-04-30 22:10 26.51002 40.93925 37010 ft 550 kts 89°
2026-04-30 22:11 26.51275 41.06722 37006 ft 547 kts 98°
2026-04-30 22:12 26.50694 41.15186 37005 ft 547 kts 98°
2026-04-30 22:12 26.50095 41.23593 37003 ft 547 kts 98°
2026-04-30 22:13 26.49486 41.32058 37009 ft 547 kts 98°
2026-04-30 22:13 26.48874 41.40540 37005 ft 548 kts 98°
2026-04-30 22:14 26.48256 41.49010 37008 ft 548 kts 98°
2026-04-30 22:14 26.47639 41.57483 37006 ft 548 kts 98°
2026-04-30 22:15 26.47022 41.65958 37002 ft 548 kts 98°
2026-04-30 22:15 26.46399 41.74390 37001 ft 548 kts 98°
2026-04-30 22:16 26.45763 41.82865 37000 ft 548 kts 98°
2026-04-30 22:17 26.44482 41.99815 37003 ft 548 kts 98°
2026-04-30 22:17 26.43510 42.12534 37009 ft 548 kts 98°
2026-04-30 22:18 26.42534 42.25194 37011 ft 548 kts 98°
2026-04-30 22:19 26.41537 42.37907 37016 ft 548 kts 99°
2026-04-30 22:20 26.40528 42.50616 37021 ft 548 kts 99°
2026-04-30 22:20 26.39507 42.63317 37019 ft 548 kts 99°
2026-04-30 22:21 26.38831 42.71721 37022 ft 548 kts 99°
2026-04-30 22:21 26.38145 42.80182 37021 ft 548 kts 99°
2026-04-30 22:22 26.37453 42.88637 37018 ft 548 kts 99°
2026-04-30 22:22 26.36757 42.97094 37020 ft 547 kts 99°
2026-04-30 22:23 26.36053 43.05551 37025 ft 547 kts 99°
2026-04-30 22:23 26.35337 43.13994 37025 ft 547 kts 99°
2026-04-30 22:24 26.34622 43.22435 37020 ft 547 kts 99°
2026-04-30 22:24 26.33910 43.30816 37010 ft 547 kts 100°
2026-04-30 22:25 26.33186 43.39267 37019 ft 547 kts 100°
2026-04-30 22:25 26.32463 43.47701 37011 ft 547 kts 100°
2026-04-30 22:26 26.31361 43.60353 36998 ft 546 kts 100°
2026-04-30 22:27 26.30622 43.68777 36999 ft 546 kts 100°
2026-04-30 22:27 26.28332 43.81012 36996 ft 528 kts 121°
2026-04-30 22:28 26.23432 43.91844 36996 ft 521 kts 125°
2026-04-30 22:29 26.16821 44.06204 37000 ft 520 kts 125°
2026-04-30 22:31 26.05294 44.31167 37007 ft 518 kts 125°
2026-04-30 22:32 25.97031 44.48923 37007 ft 517 kts 125°
2026-04-30 22:33 25.88775 44.66640 37010 ft 516 kts 125°
2026-04-30 22:35 25.80522 44.84230 37010 ft 515 kts 125°
2026-04-30 22:36 25.72261 45.01799 37031 ft 512 kts 125°
2026-04-30 22:37 25.65684 45.15691 37030 ft 508 kts 125°
2026-04-30 22:38 25.59311 45.29237 36722 ft 474 kts 126°
2026-04-30 22:38 25.56280 45.35616 35945 ft 464 kts 126°
2026-04-30 22:39 25.54773 45.38759 35515 ft 461 kts 127°
2026-04-30 22:39 25.50310 45.48111 34112 ft 454 kts 127°
2026-04-30 22:40 25.45951 45.57296 32809 ft 445 kts 126°
2026-04-30 22:41 25.41687 45.66235 31573 ft 436 kts 125°
2026-04-30 22:41 25.38856 45.72143 30730 ft 433 kts 124°
2026-04-30 22:42 25.35604 45.84828 29031 ft 437 kts 93°
2026-04-30 22:43 25.35488 45.91429 28280 ft 428 kts 93°
2026-04-30 22:43 25.35370 45.97944 27538 ft 420 kts 92°
2026-04-30 22:44 25.35244 46.04334 26822 ft 412 kts 92°
2026-04-30 22:45 25.32082 46.15460 25380 ft 369 kts 150°
2026-04-30 22:45 25.27756 46.18314 24571 ft 361 kts 156°
2026-04-30 22:46 25.23462 46.21039 23838 ft 356 kts 155°
2026-04-30 22:47 25.14972 46.26441 22222 ft 348 kts 155°
2026-04-30 22:47 25.10757 46.29126 21462 ft 343 kts 155°
2026-04-30 22:48 25.06645 46.31756 20725 ft 339 kts 155°
2026-04-30 22:49 25.00597 46.35609 19700 ft 333 kts 156°
2026-04-30 22:49 24.94713 46.39338 18744 ft 328 kts 156°
2026-04-30 22:50 24.86955 46.44416 17428 ft 327 kts 142°
2026-04-30 22:51 24.85433 46.49070 16760 ft 341 kts 81°
2026-04-30 22:51 24.87490 46.53637 16054 ft 336 kts 46°
2026-04-30 22:52 24.89310 46.55132 15746 ft 320 kts 14°
2026-04-30 22:52 24.93321 46.54946 15478 ft 273 kts 326°
2026-04-30 22:53 24.96544 46.53010 15142 ft 259 kts 323°
2026-04-30 22:53 24.99652 46.51045 14633 ft 256 kts 322°
2026-04-30 22:53 25.01191 46.50063 14380 ft 255 kts 322°
2026-04-30 22:54 25.04238 46.48130 13867 ft 254 kts 322°
2026-04-30 22:55 25.08804 46.45245 13006 ft 251 kts 323°
2026-04-30 22:55 25.11820 46.43333 12416 ft 249 kts 323°
2026-04-30 22:56 25.14816 46.41420 11821 ft 248 kts 323°
2026-04-30 22:56 25.19280 46.38574 10907 ft 246 kts 323°
2026-04-30 22:57 25.22218 46.36696 10310 ft 245 kts 323°
2026-04-30 22:57 25.25158 46.34819 9658 ft 244 kts 324°
2026-04-30 22:58 25.28103 46.32939 8924 ft 245 kts 326°
2026-04-30 22:59 25.32568 46.30093 7800 ft 249 kts 328°
2026-04-30 22:59 25.36526 46.27566 7116 ft 237 kts 329°